Regional Weather Roundup
Issued by NWS Newport/Morehead, NC

Home | Current Version | Previous Version | Text Only | Print | Product List | Glossary On
Versions: 1 2 3 4 5 6 7 8 9 10 11 12 13 14 15 16 17 18 19 20 21 22 23 24 25 26 27 28 29 30 31 32 33 34 35 36 37 38 39 40 41 42 43 44 45 46 47 48 49 50
000
ASUS42 KMHX 260425
RWRMHX
WEATHER ROUNDUP FOR EASTERN NORTH CAROLINA
NATIONAL WEATHER SERVICE NEWPORT/MOREHEAD CITY NC
1200 AM EDT TUE SEP 26 2017

NOTE: "FAIR" INDICATES FEW OR NO CLOUDS BELOW 12,000 FEET
WITH NO SIGNIFICANT WEATHER AND/OR OBSTRUCTIONS TO VISIBILITY

NCZ015>017-031-032-045>047-102-103-260500-
NORTH COAST

CITY           SKY/WX    TMP DP  RH WIND       PRES   REMARKS
EDENTON        CLOUDY    72  70  93 CALM      29.90F
ELIZABETH CITY CLOUDY    73  72  96 NE16      29.90F
KITTY HAWK     CLOUDY    71  71 100 NE8G17    29.85F FOG
MANTEO         CLOUDY   N/A N/A N/A NE15G23   29.86S FOG

$$

NCZ045>047-081-094-103-104-260500-
CENTRAL COAST

CITY           SKY/WX    TMP DP  RH WIND       PRES   REMARKS
FRISCO         CLOUDY    76  76 100 NE12G25   29.78F

$$

NCZ095-097-098-100-101-260500-
SOUTHERN COAST

CITY           SKY/WX    TMP DP  RH WIND       PRES   REMARKS
BEAUFORT       LGT RAIN  73  73 100 N15       29.79F FOG
CEDAR ISLAND   NOT AVBL
JACKSONVILLE   CLOUDY    75  72  90 N15       29.83F
PINEY ISLAND   FLURRIES N/A N/A N/A N20G28    29.80F
WILMINGTON     CLOUDY    75  70  84 N12       29.84F


$$

NCZ011>013-027>030-043-044-078>080-089-090>093-098-260500-
COASTAL PLAIN

CITY           SKY/WX    TMP DP  RH WIND       PRES   REMARKS
AHOSKIE        CLOUDY    70  67  91 N8        29.92F
CLINTON        MOCLDY    73  69  86 N6        29.89S
ELIZABETHTOWN  NOT AVBL
GOLDSBORO      MOCLDY    72  72 100 N9        29.87F
GREENVILLE     CLOUDY    70  68  94 N8        29.91F
HAVELOCK       CLOUDY    74  72  93 N17G25    29.83F
KENANSVILLE    CLOUDY    72  68  88 N8        29.87F
KINSTON        CLOUDY    72  67  85 N10       29.89F
NEW BERN       CLOUDY    73  71  93 N12       29.86F
RICHLANDS      CLOUDY    73  70  90 N9        29.86S
ROCKY MOUNT    MOCLDY    70  68  93 N13       29.92F
WASHINGTON     CLOUDY    71  68  91 N12       29.88F
WHITEVILLE     PTCLDY    75  68  80 CALM      29.86S

$$

AMZ130-135-150-152-154-156-158-170-250-252-270-ANZ085-086-088-633-658-670-260500-
MARINE OBSERVATIONS

STATION/POSITION TIME  TEMP    WIND        PRES    WAVE   SWELL
                       AIR SEA DIR/SP/G            HT/PER HT/PER
                 (UTC) (F)     (DEG/KT/KT) (MB)    (FT/S) (FT/S)
CHESAPEAKE LIGHT NOT AVBL
64 E VA BEACH    0350   71 70   50/ 16/ 19 1011.9   17/15  16/15
DUCK             0400   72 76   30/ 25/ 29 1010.9
2 E DUCK         0400      75                N/A     9/13   5/13
OREGON INLET     0400   73 76   30/ 18/ 24 1009.9
13E OREGON INLT  0318      75                N/A    14/17  15/17
HATTERAS CG      0400   76 77   30/ 17/ 23 1008.1
DIAMOND BUOY     0350   77 77   20/ 23/ 27 1006.4   16/13  15/13
CAPE LOOKOUT     0400   75     360/ 22/ 28 1007.8
BEAUFORT LAB     0400   74 75   10/ 16/ 20 1008.2
30 SE NEW RVR IN 0408   76      10/ 21/ 29 1007.6
30 SE NEW RVR IN NOT AVBL
27 SE WRIGHTSVLE 0408   77 79   20/ 21/ 31 1008.2
5 SE WRIGHTSVLE  0408   76 78   10/ 14/ 23 1009.5
225 S CAPE HAT   0350   78 81  330/ 35/ 43  992.6   20/11
41 SE CHARLESTON 0410   79 81  360/ 16/ 19 1010.1

$$



USA.gov is the U.S. government's official web portal to all federal, state and local government web resources and services.